User: anonymous   Login
Location: NJAA Observatory
(40.6819°N, 74.8979°W)
Time: 03:45:03
(UTC-04:00)
Language:

Cosmos 2082 - Orbit

View from above orbital plane
View from above orbital plane
View from above satellite
View from above satellite

Ground track
Ground track

The orbit data is extracted from the following two-line orbital elements,

1 20624U 90046A   14296.64944263 -.00000081  00000-0 -17918-4 0   524
2 20624 071.0423 079.5239 0013138 055.1293 025.5687 14.14104552260412
Epoch (UTC): 23 October 2014 15:35:11
Eccentricity: 0.0013138
inclination: 71.0423°
perigee height: 836 km
apogee height: 855 km
right ascension of ascending node: 79.5239°
argument of perigee: 55.1293°
revolutions per day: 14.14104552
mean anomaly at epoch: 25.5687°
orbit number at epoch: 26041

The dashed part of the orbit path shows where the satellite is in the earth's shadow,  

DLR